sat.trackr.live / text

‹ back to catalog

STARLINK-34778

NORAD 65021 · 2025-161G

PAYLOAD ACTIVE UNKNOWN

§ Identity

Operator
Country
US
Launch date
2025-07-30
Launch site
AFWTR
Launch vehicle
Mass (kg)
RCS (m²)

Purposes: comms

External: N2YO · Heavens-Above · Gunter

§ Orbital elements

Epoch: 2026-05-25T03:46:56.845632Z

Period
94.10 min
Inclination
53.1599°
Eccentricity
0.0001237
Mean motion
15.30252936 rev/d
Perigee alt
474.2 km
Apogee alt
475.9 km
Semi-major
6,853.2 km
B*
1.0873e-3
RAAN
299.2890°
Arg perigee
63.4571°
Mean anomaly
296.6557°
Rev number
4,702

§ Raw data

STARLINK-347781 65021U 25161G   26145.15760238  .00032036  00000+0  10873-2 0  99932 65021  53.1599 299.2890 0001237  63.4571 296.6557 15.30252936 47025

JSON: /api/v1/satellites/65021 · /tle

For live sub-satellite position, see the globe view (requires WebGL).

§ Visibility from observer

Set your observer location to see the next 7 days of passes ≥ 10°. The values pass through the URL so the page stays shareable.

No JS? Fill the form by hand. The geolocation button needs JavaScript.